TAP1499 LPPT-GBYD

Flight info

Callsign TAP1499
Flight time N/A
Altitude 35000
Route DUZOP DCT OSLAD UR724 IBALU UN857 TERTO N857 DEREV/N0461F360 N857 BIPET/N0473F300 DCT SILUC DCT NOCUT UG853 NARAT/N0461F370 UR976 ANITI UB600 BJ
Aircraft A320/M-SDE3FGHIRWY/LB1

Departure

Time N/A
Airport Lisbon Humberto Delgado Airport (LPPT)

Arrival

Time 2026-04-21 15:41
Airport Banjul International Airport (GBYD)
Time Latitude Longitude Altitude Speed Heading
2026-04-21 14:35 19.30162 -17.99990 35941 ft 472 kts 190°
2026-04-21 14:36 19.23717 -18.00002 35933 ft 473 kts 189°
2026-04-21 14:36 19.17770 -17.99999 35935 ft 473 kts 189°
2026-04-21 14:37 19.11145 -18.00000 35930 ft 473 kts 189°
2026-04-21 14:37 19.04575 -18.00001 35930 ft 472 kts 189°
2026-04-21 14:38 18.97974 -18.00001 35931 ft 472 kts 189°
2026-04-21 14:38 18.91432 -18.00002 35931 ft 472 kts 189°
2026-04-21 14:39 18.84813 -18.00001 35930 ft 471 kts 189°
2026-04-21 14:39 18.78267 -18.00003 35932 ft 471 kts 189°
2026-04-21 14:40 18.71704 -18.00003 35934 ft 471 kts 189°
2026-04-21 14:40 18.65141 -18.00004 35932 ft 470 kts 190°
2026-04-21 14:41 18.58590 -18.00005 35933 ft 470 kts 189°
2026-04-21 14:41 18.52044 -18.00005 35932 ft 470 kts 189°
2026-04-21 14:42 18.45509 -18.00007 35934 ft 469 kts 189°
2026-04-21 14:42 18.38950 -18.00010 35934 ft 470 kts 189°
2026-04-21 14:43 18.32403 -17.99979 35934 ft 468 kts 189°
2026-04-21 14:43 18.25871 -17.99992 35932 ft 467 kts 190°
2026-04-21 14:44 18.19391 -18.00005 35930 ft 467 kts 189°
2026-04-21 14:44 18.12845 -17.99995 35932 ft 466 kts 189°
2026-04-21 14:45 18.06317 -17.99998 35933 ft 468 kts 189°
2026-04-21 14:45 17.99806 -18.00000 35927 ft 467 kts 189°
2026-04-21 14:46 17.93307 -17.99994 35929 ft 466 kts 189°
2026-04-21 14:46 17.86827 -18.00003 35932 ft 467 kts 189°
2026-04-21 14:47 17.80326 -17.99999 35929 ft 465 kts 189°
2026-04-21 14:47 17.73796 -17.99998 35923 ft 467 kts 189°
2026-04-21 14:48 17.67277 -18.00002 35931 ft 468 kts 189°
2026-04-21 14:48 17.60795 -18.00001 35926 ft 467 kts 189°
2026-04-21 14:49 17.54268 -18.00000 35921 ft 467 kts 189°
2026-04-21 14:49 17.47754 -18.00001 35925 ft 468 kts 189°
2026-04-21 14:50 17.42330 -18.00001 35918 ft 468 kts 189°
2026-04-21 14:50 17.34718 -18.00004 35923 ft 466 kts 189°
2026-04-21 14:51 17.28197 -18.00001 35916 ft 467 kts 189°
2026-04-21 14:51 17.21661 -18.00002 35914 ft 467 kts 189°
2026-04-21 14:52 17.16603 -18.00004 35915 ft 467 kts 189°
2026-04-21 14:52 17.10209 -18.00001 35912 ft 466 kts 189°
2026-04-21 14:53 17.03687 -18.00001 35913 ft 468 kts 189°
2026-04-21 14:53 16.97162 -18.00004 35911 ft 467 kts 189°
2026-04-21 14:54 16.90654 -18.00005 35913 ft 468 kts 189°
2026-04-21 14:54 16.84125 -18.00004 35913 ft 466 kts 189°
2026-04-21 14:55 16.77612 -18.00005 35913 ft 468 kts 188°
2026-04-21 14:55 16.71113 -18.00006 35911 ft 467 kts 188°
2026-04-21 14:56 16.64598 -18.00008 35911 ft 466 kts 189°
2026-04-21 14:56 16.58103 -18.00010 35912 ft 464 kts 188°
2026-04-21 14:57 16.51616 -18.00010 35910 ft 464 kts 189°
2026-04-21 14:57 16.45176 -18.00010 35912 ft 463 kts 188°
2026-04-21 14:58 16.38681 -18.00012 35911 ft 464 kts 188°
2026-04-21 14:58 16.32188 -18.00014 35911 ft 465 kts 188°
2026-04-21 14:59 16.25712 -18.00016 35911 ft 465 kts 188°
2026-04-21 14:59 16.19255 -18.00016 35913 ft 464 kts 188°
2026-04-21 15:00 16.12787 -18.00015 35910 ft 465 kts 188°
2026-04-21 15:00 16.06278 -18.00015 35911 ft 463 kts 188°
2026-04-21 15:01 15.99865 -18.00015 35912 ft 462 kts 188°
2026-04-21 15:01 15.93548 -18.00013 35910 ft 462 kts 188°
2026-04-21 15:02 15.87095 -18.00016 35910 ft 462 kts 188°
2026-04-21 15:02 15.80645 -18.00013 35909 ft 460 kts 188°
2026-04-21 15:03 15.74221 -18.00012 35909 ft 460 kts 188°
2026-04-21 15:03 15.67803 -18.00011 35912 ft 459 kts 188°
2026-04-21 15:04 15.61423 -18.00011 35913 ft 460 kts 188°
2026-04-21 15:04 15.54967 -18.00010 35912 ft 459 kts 188°
2026-04-21 15:05 15.48588 -18.00010 35909 ft 459 kts 188°
2026-04-21 15:05 15.38963 -18.00008 35912 ft 458 kts 188°
2026-04-21 15:06 15.32573 -18.00006 35910 ft 458 kts 188°
2026-04-21 15:06 15.26199 -18.00005 35902 ft 459 kts 187°
2026-04-21 15:07 15.19780 -18.00005 35893 ft 459 kts 187°
2026-04-21 15:07 15.13387 -18.00001 35892 ft 458 kts 187°
2026-04-21 15:08 15.07033 -17.99996 35892 ft 458 kts 187°
2026-04-21 15:08 15.00600 -17.98982 35889 ft 480 kts 167°
2026-04-21 15:09 14.97512 -17.97537 35889 ft 490 kts 156°
2026-04-21 15:09 14.94707 -17.95491 35888 ft 499 kts 144°
2026-04-21 15:09 14.92296 -17.92901 35889 ft 508 kts 132°
2026-04-21 15:09 14.90380 -17.89820 35889 ft 516 kts 120°
2026-04-21 15:10 14.87688 -17.82883 35890 ft 519 kts 113°
2026-04-21 15:10 14.85193 -17.75913 35886 ft 518 kts 113°
2026-04-21 15:11 14.82618 -17.68985 35887 ft 518 kts 114°
2026-04-21 15:11 14.80001 -17.62070 35892 ft 516 kts 114°
2026-04-21 15:12 14.77305 -17.55250 35888 ft 513 kts 120°
2026-04-21 15:12 14.73345 -17.49233 35884 ft 503 kts 137°
2026-04-21 15:13 14.70819 -17.46710 35598 ft 496 kts 146°
2026-04-21 15:13 14.68077 -17.44641 35308 ft 486 kts 154°
2026-04-21 15:13 14.65122 -17.42971 35016 ft 478 kts 161°
2026-04-21 15:13 14.62122 -17.41555 34697 ft 476 kts 162°
2026-04-21 15:14 14.59068 -17.40159 34132 ft 476 kts 162°
2026-04-21 15:14 14.56034 -17.38771 33394 ft 478 kts 162°
2026-04-21 15:14 14.53003 -17.37375 32536 ft 480 kts 161°
2026-04-21 15:14 14.49943 -17.35957 31668 ft 485 kts 161°
2026-04-21 15:15 14.46867 -17.34524 30714 ft 490 kts 161°
2026-04-21 15:15 14.43745 -17.33066 29713 ft 496 kts 160°
2026-04-21 15:15 14.40590 -17.31589 28673 ft 503 kts 160°
2026-04-21 15:15 14.37380 -17.30084 27598 ft 509 kts 159°
2026-04-21 15:16 14.34146 -17.28562 26762 ft 509 kts 159°
2026-04-21 15:16 14.30964 -17.27064 26074 ft 505 kts 159°
2026-04-21 15:16 14.27764 -17.25555 25444 ft 499 kts 159°
2026-04-21 15:16 14.24625 -17.24077 24825 ft 494 kts 158°
2026-04-21 15:17 14.21528 -17.22623 24223 ft 489 kts 159°
2026-04-21 15:17 14.18407 -17.21158 23641 ft 484 kts 158°
2026-04-21 15:17 14.15382 -17.19739 23092 ft 479 kts 158°
2026-04-21 15:17 14.12357 -17.18321 22514 ft 476 kts 158°
2026-04-21 15:18 14.09340 -17.16907 21961 ft 472 kts 158°
2026-04-21 15:18 14.06381 -17.15521 21423 ft 468 kts 158°
2026-04-21 15:18 14.03401 -17.14123 20867 ft 464 kts 158°
2026-04-21 15:18 14.00490 -17.12760 20315 ft 460 kts 158°
2026-04-21 15:19 13.97574 -17.11392 19749 ft 455 kts 158°
2026-04-21 15:19 13.94734 -17.10063 19213 ft 449 kts 158°
2026-04-21 15:19 13.91892 -17.08734 18668 ft 443 kts 158°
2026-04-21 15:19 13.89094 -17.07425 18124 ft 437 kts 158°
2026-04-21 15:20 13.86354 -17.06145 17576 ft 431 kts 158°
2026-04-21 15:20 13.83620 -17.04867 17016 ft 426 kts 158°
2026-04-21 15:20 13.80925 -17.03610 16448 ft 420 kts 158°
2026-04-21 15:20 13.78292 -17.02381 15866 ft 415 kts 158°
2026-04-21 15:21 13.75664 -17.01153 15328 ft 407 kts 158°
2026-04-21 15:21 13.73148 -16.99978 14781 ft 393 kts 157°
2026-04-21 15:21 13.70667 -16.98821 14196 ft 382 kts 157°
2026-04-21 15:21 13.68287 -16.97710 13676 ft 375 kts 157°
2026-04-21 15:22 13.65910 -16.96599 13172 ft 373 kts 156°
2026-04-21 15:22 13.63571 -16.95509 12632 ft 367 kts 156°
2026-04-21 15:22 13.61289 -16.94445 12084 ft 347 kts 156°
2026-04-21 15:22 13.59170 -16.93454 11661 ft 327 kts 156°
2026-04-21 15:23 13.57141 -16.92504 11242 ft 308 kts 156°
2026-04-21 15:23 13.55250 -16.91623 11040 ft 285 kts 156°
2026-04-21 15:23 13.53492 -16.90803 10852 ft 274 kts 156°
2026-04-21 15:23 13.51776 -16.90002 10632 ft 264 kts 156°
2026-04-21 15:24 13.50136 -16.89237 10426 ft 257 kts 156°
2026-04-21 15:24 13.48508 -16.88478 10358 ft 256 kts 156°
2026-04-21 15:24 13.46871 -16.87715 10216 ft 256 kts 156°
2026-04-21 15:24 13.45235 -16.86953 10044 ft 256 kts 155°
2026-04-21 15:25 13.43623 -16.86204 9912 ft 256 kts 155°
2026-04-21 15:25 13.42001 -16.85450 9754 ft 250 kts 155°
2026-04-21 15:25 13.40429 -16.84717 9494 ft 246 kts 155°
2026-04-21 15:25 13.38867 -16.83988 9251 ft 243 kts 155°
2026-04-21 15:26 13.37355 -16.83283 9001 ft 238 kts 155°
2026-04-21 15:26 13.35836 -16.82575 8749 ft 235 kts 155°
2026-04-21 15:26 13.34355 -16.81886 8480 ft 233 kts 154°
2026-04-21 15:26 13.32863 -16.81192 8138 ft 234 kts 154°
2026-04-21 15:27 13.31387 -16.80507 7872 ft 230 kts 154°
2026-04-21 15:27 13.29949 -16.79836 7627 ft 227 kts 154°
2026-04-21 15:27 13.28508 -16.79166 7384 ft 223 kts 154°
2026-04-21 15:27 13.27118 -16.78520 7194 ft 216 kts 154°
2026-04-21 15:28 13.25805 -16.77877 7072 ft 203 kts 148°
2026-04-21 15:28 13.24696 -16.77004 6729 ft 198 kts 133°
2026-04-21 15:28 13.23866 -16.75910 6265 ft 196 kts 121°
2026-04-21 15:28 13.23188 -16.74711 5939 ft 188 kts 117°
2026-04-21 15:29 13.22581 -16.73579 5687 ft 179 kts 116°
2026-04-21 15:29 13.21989 -16.72481 5435 ft 172 kts 117°
2026-04-21 15:29 13.21419 -16.71424 5194 ft 165 kts 116°
2026-04-21 15:29 13.20872 -16.70423 4976 ft 157 kts 116°
2026-04-21 15:30 13.20339 -16.69446 4786 ft 156 kts 116°
2026-04-21 15:30 13.19807 -16.68474 4599 ft 156 kts 116°
2026-04-21 15:30 13.19282 -16.67512 4353 ft 154 kts 116°
2026-04-21 15:30 13.18753 -16.66555 4044 ft 155 kts 115°
2026-04-21 15:31 13.18224 -16.65590 3732 ft 155 kts 115°
2026-04-21 15:31 13.17689 -16.64617 3433 ft 155 kts 114°
2026-04-21 15:31 13.17165 -16.63667 3121 ft 155 kts 114°
2026-04-21 15:31 13.16632 -16.62695 2819 ft 155 kts 114°
2026-04-21 15:32 13.16111 -16.61754 2567 ft 148 kts 114°
2026-04-21 15:32 13.15610 -16.60850 2316 ft 143 kts 114°
2026-04-21 15:32 13.15127 -16.59968 2002 ft 141 kts 114°
2026-04-21 15:32 13.14653 -16.59109 1858 ft 140 kts 112°
2026-04-21 15:33 13.14169 -16.58223 1871 ft 141 kts 114°
2026-04-21 15:33 13.13814 -16.57308 1854 ft 135 kts 92°
2026-04-21 15:33 13.13886 -16.56377 1855 ft 130 kts 65°
2026-04-21 15:33 13.14330 -16.55586 1858 ft 128 kts 43°
2026-04-21 15:34 13.14997 -16.54968 1871 ft 130 kts 37°
2026-04-21 15:34 13.15696 -16.54374 1869 ft 131 kts 37°
2026-04-21 15:34 13.16403 -16.53770 1874 ft 131 kts 37°
2026-04-21 15:34 13.17097 -16.53173 1867 ft 131 kts 37°
2026-04-21 15:35 13.17797 -16.52564 1865 ft 131 kts 37°
2026-04-21 15:35 13.18499 -16.51954 1849 ft 131 kts 37°
2026-04-21 15:35 13.19189 -16.51349 1853 ft 131 kts 37°
2026-04-21 15:35 13.19886 -16.50741 1847 ft 131 kts 37°
2026-04-21 15:36 13.20665 -16.50282 1836 ft 130 kts
2026-04-21 15:36 13.21511 -16.50585 1858 ft 134 kts 321°
2026-04-21 15:36 13.22124 -16.51301 1863 ft 131 kts 315°
2026-04-21 15:36 13.22714 -16.52012 1854 ft 130 kts 314°
2026-04-21 15:37 13.23301 -16.52717 1856 ft 130 kts 315°
2026-04-21 15:37 13.23895 -16.53429 1859 ft 130 kts 315°
2026-04-21 15:37 13.24486 -16.54135 1856 ft 130 kts 315°
2026-04-21 15:37 13.25076 -16.54840 1859 ft 130 kts 315°
2026-04-21 15:38 13.25672 -16.55552 1857 ft 130 kts 315°
2026-04-21 15:38 13.26263 -16.56255 1867 ft 130 kts 314°
2026-04-21 15:38 13.26857 -16.56965 1763 ft 130 kts 315°
2026-04-21 15:38 13.27444 -16.57664 1598 ft 129 kts 315°
2026-04-21 15:39 13.28037 -16.58369 1431 ft 129 kts 314°
2026-04-21 15:39 13.28619 -16.59061 1272 ft 129 kts 313°
2026-04-21 15:39 13.29210 -16.59764 1110 ft 129 kts 313°
2026-04-21 15:39 13.29797 -16.60463 941 ft 128 kts 312°
2026-04-21 15:40 13.30379 -16.61150 782 ft 128 kts 313°
2026-04-21 15:40 13.30959 -16.61848 629 ft 128 kts 309°
2026-04-21 15:40 13.31533 -16.62552 490 ft 128 kts 310°
2026-04-21 15:40 13.32122 -16.63240 289 ft 126 kts 309°
2026-04-21 15:41 13.32687 -16.63919 154 ft 125 kts 309°
2026-04-21 15:41 13.33232 -16.64577 96 ft 105 kts 310°
2026-04-21 15:41 13.33602 -16.65006 98 ft 55 kts 308°
2026-04-21 15:41 13.33756 -16.65195 99 ft 25 kts 310°
2026-04-21 15:42 13.33890 -16.65236 99 ft 4 kts 36°
2026-04-21 15:42 13.33892 -16.65234 99 ft 0 kts 36°
2026-04-21 15:42 13.33914 -16.65218 99 ft 5 kts 36°
2026-04-21 15:42 13.33947 -16.65199 100 ft 4 kts 16°
2026-04-21 15:43 13.33991 -16.65208 101 ft 9 kts 324°
2026-04-21 15:43 13.34042 -16.65266 101 ft 11 kts 323°
2026-04-21 15:43 13.34116 -16.65260 102 ft 11 kts 31°
2026-04-21 15:43 13.34165 -16.65208 102 ft 8 kts 89°
2026-04-21 15:44 13.34138 -16.65160 102 ft 8 kts 129°
2026-04-21 15:44 13.34118 -16.65136 102 ft 1 kts 131°
2026-04-21 15:44 13.34114 -16.65132 102 ft 0 kts 131°